Molokai, HI

8:06 AM HST on February 25, 2018 (GMT -1000)
Molokai

Weather History for PHMK - September, 2014

Change the Weather History Date:

Monday, September 1, 2014

  Actual Average Record
Temperature  
Mean Temperature 76 °F -  
Max Temperature 84 °F 85 °F 91 °F (1979)
Min Temperature 69 °F 70 °F 61 °F (1984)
Cooling Degree Days 12    
Growing Degree Days 26 (Base 50)    
Moisture  
Dew Point 72 °F    
Average Humidity 85    
Maximum Humidity 100    
Minimum Humidity 65    
Precipitation  
Precipitation 0.12 in - - ()
Sea Level Pressure  
Sea Level Pressure 30.03 in    
Wind  
Wind Speed 3 mph (North)    
Max Wind Speed 8 mph    
Max Gust Speed -    
Visibility 10 miles    
Events      
Averages and records for this station are not official NWS values.
T = Trace of Precipitation, MM = Missing Value Source: NWS Daily Summary

Daily Weather History Graph

Daily Weather History Graph

Search for Another Location

Airport or City:

Trip Planner

Search our weather history database for the weather conditions in past years. The results will help you decide how hot, cold, wet, or windy it might be!

Date:

Astronomy

Sep. 01, 2014 Rise Set
Actual Time 6:12 AM HST 6:44 PM HST
Civil Twilight 5:49 AM HST 7:06 PM HST
Nautical Twilight 5:23 AM HST 7:33 PM HST
Astronomical Twilight 4:56 AM HST 7:59 PM HST
Moon 12:18 PM HST (9/1) 11:45 PM HST (9/1)
Length of Visible Light 13h 17m
Length of Day
12h 32m
Waxing Crescent, 44% of the Moon is Illuminated
Sep 1
Waxing Crescent
Sep 2
First Quarter
Sep 8
Full
Sep 15
Last Quarter
Sep 23
New

Hourly Weather History & Observations

Time (HST) Temp. Heat Index Dew Point Humidity Pressure Visibility Wind Dir Wind Speed Gust Speed Precip Events Conditions
12:54 AM 70.0 °F - 69.1 °F 97% 30.04 in 10.0 mi Calm Calm - N/A   Clear
1:54 AM 70.0 °F - 70.0 °F 100% 30.02 in 10.0 mi NW 3.5 mph - 0.01 in   Clear
2:54 AM 71.1 °F - 71.1 °F 100% 30.01 in 10.0 mi NW 5.8 mph - N/A   Clear
3:54 AM 69.1 °F - 69.1 °F 100% 30.01 in 10.0 mi Calm Calm - 0.01 in   Clear
4:54 AM 70.0 °F - 70.0 °F 100% 30.01 in 10.0 mi Calm Calm - N/A   Clear
5:54 AM 71.1 °F - 71.1 °F 100% 30.02 in 10.0 mi Calm Calm - 0.01 in   Clear
6:54 AM 73.0 °F - 72.0 °F 96% 30.04 in 10.0 mi North 3.5 mph - N/A   Clear
7:54 AM 79.0 °F - 73.9 °F 84% 30.05 in 10.0 mi NNW 4.6 mph - 0.01 in   Clear
8:54 AM 82.0 °F 87.4 °F 73.0 °F 74% 30.05 in 10.0 mi North 8.1 mph - N/A   Partly Cloudy
9:54 AM 84.9 °F 90.7 °F 72.0 °F 65% 30.06 in 10.0 mi Variable 4.6 mph - N/A   Partly Cloudy
12:24 PM 84.2 °F 90.9 °F 73.4 °F 70% 30.03 in 10.0 mi North 8.1 mph - 0.00 in   Partly Cloudy
12:54 PM 84.0 °F 91.2 °F 73.9 °F 72% 30.03 in 10.0 mi Variable 4.6 mph - 0.00 in   Scattered Clouds
1:54 PM 84.9 °F 92.1 °F 73.9 °F 69% 30.01 in 10.0 mi Variable 5.8 mph - 0.01 in   Scattered Clouds
2:54 PM 84.0 °F 90.2 °F 73.0 °F 69% 30.01 in 10.0 mi South 4.6 mph - N/A   Scattered Clouds
3:54 PM 84.0 °F 91.2 °F 73.9 °F 72% 30.00 in 10.0 mi South 5.8 mph - N/A   Scattered Clouds
4:54 PM 82.0 °F 87.9 °F 73.9 °F 76% 29.99 in 10.0 mi South 5.8 mph - 0.02 in   Scattered Clouds
5:01 PM 82.4 °F 88.2 °F 73.4 °F 74% 29.99 in 10.0 mi SE 6.9 mph - N/A   Overcast
5:54 PM 82.0 °F 87.4 °F 73.0 °F 74% 30.01 in 10.0 mi SSW 5.8 mph - 0.02 in   Scattered Clouds
6:54 PM 78.1 °F - 73.0 °F 84% 30.02 in 10.0 mi North 3.5 mph - 0.01 in   Scattered Clouds
7:54 PM 75.9 °F - 73.9 °F 94% 30.04 in 10.0 mi NNE 3.5 mph - N/A   Clear
8:54 PM 75.0 °F - 73.0 °F 94% 30.05 in 10.0 mi NE 4.6 mph - 0.01 in   Clear
9:54 PM 75.0 °F - 72.0 °F 90% 30.06 in 10.0 mi NNE 5.8 mph - N/A   Clear
10:54 PM 75.0 °F - 72.0 °F 90% 30.06 in 10.0 mi NNE 4.6 mph - 0.01 in   Clear
11:54 PM 75.0 °F - 71.1 °F 87% 30.05 in 10.0 mi Calm Calm - N/A   Clear